Hourly Weather Russkiy Kachim

Today, 16 April, Friday

Time Temperature Precipitation Wind Pressure Humidity
00:00 +12°C° 0 mm 1 mps 738 mmHg 61%
01:00 +12°C° 0 mm 1 mps 738 mmHg 61%
02:00 +12°C° 0 mm 2 mps 738 mmHg 61%
03:00 +10°C° 0 mm 2 mps 738 mmHg 61%
04:00 +10°C° 0 mm 2 mps 738 mmHg 61%
05:00 +10°C° 0 mm 2 mps 739 mmHg 61%
06:00 +10°C° 0 mm 2 mps 739 mmHg 61%
07:00 +12°C° 0 mm 2 mps 739 mmHg 57%
08:00 +13°C° 0 mm 3 mps 739 mmHg 54%
09:00 +16°C° 0 mm 3 mps 739 mmHg 50%
10:00 +17°C° 0 mm 4 mps 739 mmHg 47%
11:00 +18°C° 0 mm 4 mps 740 mmHg 44%
12:00 +19°C° 0 mm 4 mps 740 mmHg 41%
13:00 +19°C° 0 mm 4 mps 740 mmHg 40%
14:00 +19°C° 0 mm 4 mps 740 mmHg 39%
15:00 +20°C° 0 mm 4 mps 740 mmHg 38%
16:00 +18°C° 0 mm 3 mps 740 mmHg 45%
17:00 +17°C° 0 mm 3 mps 740 mmHg 52%
18:00 +16°C° 0 mm 3 mps 740 mmHg 59%
19:00 +13°C° 0 mm 3 mps 740 mmHg 67%
20:00 +12°C° 0 mm 4 mps 741 mmHg 75%
21:00 +11°C° 0 mm 4 mps 741 mmHg 83%
22:00 +10°C° 0 mm 4 mps 741 mmHg 85%
23:00 +8°C° 0 mm 4 mps 741 mmHg 88%

Tomorrow, 17 April, Saturday

Time Temperature Precipitation Wind Pressure Humidity
00:00 +8°C° 0 mm 4 mps 741 mmHg 91%
01:00 +7°C° 0 mm 4 mps 741 mmHg 92%
02:00 +7°C° 0 mm 3 mps 741 mmHg 93%
03:00 +7°C° 0 mm 3 mps 741 mmHg 94%
04:00 +7°C° 0 mm 3 mps 741 mmHg 94%
05:00 +7°C° 0 mm 3 mps 741 mmHg 93%
06:00 +7°C° 0 mm 3 mps 741 mmHg 93%
07:00 +8°C° 0 mm 4 mps 741 mmHg 86%
08:00 +10°C° 0 mm 5 mps 742 mmHg 79%
09:00 +12°C° 0 mm 5 mps 742 mmHg 72%
10:00 +14°C° 0 mm 5 mps 741 mmHg 66%
11:00 +15°C° 0 mm 5 mps 741 mmHg 61%
12:00 +16°C° 0 mm 5 mps 741 mmHg 56%
13:00 +16°C° 0.2 mm 5 mps 741 mmHg 54%
14:00 +16°C° 0.2 mm 5 mps 741 mmHg 53%
15:00 +16°C° 0.2 mm 5 mps 741 mmHg 52%
16:00 +16°C° 0 mm 5 mps 741 mmHg 56%
17:00 +15°C° 0 mm 5 mps 741 mmHg 60%
18:00 +14°C° 0 mm 5 mps 741 mmHg 65%
19:00 +12°C° 0 mm 5 mps 741 mmHg 66%
20:00 +10°C° 0 mm 5 mps 741 mmHg 68%
21:00 +9°C° 0 mm 5 mps 741 mmHg 69%
22:00 +8°C° 0 mm 5 mps 741 mmHg 69%
23:00 +8°C° 0 mm 5 mps 740 mmHg 68%

Day after tomorrow, 18 April, Sunday

Time Temperature Precipitation Wind Pressure Humidity
00:00 +7°C° 0 mm 4 mps 740 mmHg 67%
01:00 +7°C° 0.2 mm 4 mps 740 mmHg 68%
02:00 +7°C° 0.2 mm 4 mps 740 mmHg 69%
03:00 +6°C° 0.2 mm 4 mps 740 mmHg 71%
04:00 +6°C° 0.2 mm 4 mps 740 mmHg 71%
05:00 +6°C° 0.2 mm 4 mps 740 mmHg 71%
06:00 +6°C° 0.2 mm 4 mps 740 mmHg 71%
07:00 +6°C° 0.2 mm 4 mps 740 mmHg 72%
08:00 +6°C° 0.2 mm 5 mps 740 mmHg 74%
09:00 +6°C° 0.2 mm 5 mps 740 mmHg 75%
10:00 +6°C° 0.3 mm 5 mps 740 mmHg 77%
11:00 +6°C° 0.3 mm 5 mps 741 mmHg 78%
12:00 +7°C° 0.3 mm 4 mps 741 mmHg 80%
13:00 +7°C° 0.1 mm 4 mps 741 mmHg 79%
14:00 +7°C° 0.1 mm 4 mps 741 mmHg 78%
15:00 +8°C° 0.1 mm 4 mps 741 mmHg 77%
16:00 +8°C° 0 mm 4 mps 741 mmHg 78%
17:00 +7°C° 0 mm 4 mps 741 mmHg 79%
18:00 +7°C° 0 mm 4 mps 741 mmHg 81%
19:00 +8°C° 0 mm 3 mps 741 mmHg 79%
20:00 +8°C° 0 mm 3 mps 741 mmHg 78%
21:00 +8°C° 0 mm 3 mps 741 mmHg 76%
22:00 +6°C° 0 mm 4 mps 741 mmHg 75%
23:00 +6°C° 0 mm 4 mps 741 mmHg 73%

19 April, Monday

Time Temperature Precipitation Wind Pressure Humidity
00:00 +6°C° 0 mm 5 mps 741 mmHg 71%
01:00 +6°C° 0 mm 5 mps 741 mmHg 73%
02:00 +6°C° 0 mm 5 mps 741 mmHg 74%
03:00 +5°C° 0 mm 5 mps 741 mmHg 75%
04:00 +5°C° 0.3 mm 5 mps 742 mmHg 79%
05:00 +5°C° 0.3 mm 5 mps 742 mmHg 83%
06:00 +3°C° 0.3 mm 5 mps 742 mmHg 87%
07:00 +5°C° 0.3 mm 5 mps 742 mmHg 82%
08:00 +5°C° 0.3 mm 5 mps 743 mmHg 78%
09:00 +6°C° 0.3 mm 5 mps 743 mmHg 73%
10:00 +5°C° 0 mm 6 mps 743 mmHg 70%
11:00 +7°C° 0 mm 6 mps 743 mmHg 67%
12:00 +8°C° 0 mm 6 mps 743 mmHg 63%
13:00 +8°C° 0 mm 6 mps 743 mmHg 64%
14:00 +8°C° 0 mm 6 mps 743 mmHg 65%
15:00 +8°C° 0 mm 6 mps 742 mmHg 65%
16:00 +8°C° 0.1 mm 6 mps 743 mmHg 67%
17:00 +7°C° 0.1 mm 5 mps 743 mmHg 68%
18:00 +7°C° 0.1 mm 5 mps 743 mmHg 69%
19:00 +7°C° 0 mm 5 mps 743 mmHg 70%
20:00 +5°C° 0 mm 6 mps 743 mmHg 71%
21:00 +5°C° 0 mm 6 mps 743 mmHg 72%
22:00 +5°C° 0 mm 6 mps 743 mmHg 73%
23:00 +4°C° 0 mm 7 mps 743 mmHg 75%

20 April, Tuesday

Time Temperature Precipitation Wind Pressure Humidity
00:00 +4°C° 0 mm 7 mps 743 mmHg 76%
01:00 +3°C° 0 mm 7 mps 743 mmHg 76%
02:00 +3°C° 0 mm 7 mps 743 mmHg 75%
03:00 +2°C° 0 mm 6 mps 743 mmHg 74%
04:00 +2°C° 0 mm 7 mps 743 mmHg 73%
05:00 +2°C° 0 mm 7 mps 743 mmHg 72%
06:00 +2°C° 0 mm 7 mps 743 mmHg 71%
07:00 +1°C° 0 mm 8 mps 743 mmHg 69%
08:00 +1°C° 0 mm 8 mps 743 mmHg 67%
09:00 +1°C° 0 mm 8 mps 743 mmHg 65%
10:00 +2°C° 0 mm 8 mps 743 mmHg 64%
11:00 +2°C° 0 mm 9 mps 743 mmHg 63%
12:00 +2°C° 0 mm 9 mps 743 mmHg 63%
13:00 +3°C° 0 mm 9 mps 743 mmHg 61%
14:00 +3°C° 0 mm 9 mps 743 mmHg 58%
15:00 +3°C° 0 mm 9 mps 742 mmHg 56%
16:00 +3°C° 0 mm 9 mps 742 mmHg 58%
17:00 +3°C° 0 mm 9 mps 742 mmHg 59%
18:00 +3°C° 0 mm 9 mps 742 mmHg 60%
19:00 +3°C° 0.2 mm 9 mps 742 mmHg 62%
20:00 +3°C° 0.2 mm 9 mps 742 mmHg 64%
21:00 +3°C° 0.2 mm 9 mps 742 mmHg 66%
22:00 +3°C° 0.2 mm 9 mps 742 mmHg 65%
23:00 +3°C° 0.2 mm 9 mps 741 mmHg 64%

21 April, Wednesday

Time Temperature Precipitation Wind Pressure Humidity
00:00 +2°C° 0.2 mm 9 mps 741 mmHg 63%
01:00 +2°C° 0.4 mm 9 mps 741 mmHg 69%
02:00 +1°C° 0.4 mm 9 mps 741 mmHg 74%
03:00 +1°C° 0.4 mm 9 mps 741 mmHg 80%
04:00 +1°C° 0.6 mm 8 mps 741 mmHg 83%
05:00 0°C° 0.6 mm 8 mps 741 mmHg 86%
06:00 0°C° 0.6 mm 7 mps 741 mmHg 88%
07:00 0°C° 0.5 mm 7 mps 742 mmHg 89%
08:00 0°C° 0.5 mm 7 mps 742 mmHg 91%
09:00 0°C° 0.5 mm 7 mps 742 mmHg 92%
10:00 -1°C° 0.7 mm 7 mps 742 mmHg 92%
11:00 -1°C° 0.7 mm 7 mps 743 mmHg 92%
12:00 -1°C° 0.7 mm 7 mps 743 mmHg 92%
13:00 -1°C° 0.2 mm 7 mps 743 mmHg 92%
14:00 -1°C° 0.2 mm 7 mps 743 mmHg 92%
15:00 -1°C° 0.2 mm 6 mps 743 mmHg 93%
16:00 -1°C° 0 mm 6 mps 743 mmHg 94%
17:00 -1°C° 0 mm 6 mps 743 mmHg 94%
18:00 -1°C° 0 mm 6 mps 744 mmHg 95%
19:00 -1°C° 0 mm 6 mps 744 mmHg 96%
20:00 0°C° 0 mm 5 mps 744 mmHg 96%
21:00 0°C° 0 mm 5 mps 744 mmHg 97%
22:00 0°C° 0 mm 5 mps 744 mmHg 97%
23:00 0°C° 0 mm 5 mps 744 mmHg 97%
Show more